Temperature
15 15 15 15 15 15 15 15 14 14 14 14 14 14 14 14 13 13 13 13 13 13 13 13 13 13 13 13 13 13 12 12 12 12 12 12 12 12 12 12 12 12 12
15 15 15 15 15 14 14 14 14 14 14 14 14 14 14 13 13 13 13 13 13 13 13 13 13 13 13 13 12 12 12 12 12 12 12 12 12 12 12 12 12 12 12
15 15 15 14 14 14 14 14 14 14 14 14 14 14 13 13 13 13 13 13 13 13 13 13 13 13 13 12 12 12 12 12 12 12 12 12 12 12 12 12 12 12 12
15 15 15 14 14 14 14 14 14 14 14 14 14 13 13 13 13 13 13 13 13 13 13 13 12 12 12 12 12 12 12 12 12 11 11 11 11 11 11 11 11 11 11
14 14 14 14 14 14 14 14 14 14 14 14 13 13 13 13 13 13 13 13 13 13 12 12 12 12 12 12 12 12 12 12 11 11 11 11 11 11 11 11 11 11 11
14 14 14 14 14 14 14 14 14 14 13 13 13 13 13 13 13 13 13 13 13 12 12 12 12 12 12 12 12 12 11 11 11 11 11 11 11 11 11 11 11 11 11
14 14 14 14 14 14 14 14 13 13 13 13 13 13 13 13 13 13 13 12 12 12 12 12 12 12 12 12 11 11 11 11 11 11 11 11 11 11 11 11 11 11 11
14 14 14 14 13 13 13 13 13 13 13 13 13 13 13 13 13 12 12 12 12 12 12 12 12 12 11 11 11 11 11 11 11 11 11 11 11 11 11 11 11 11 11
14 14 14 13 13 13 13 13 13 13 13 13 13 13 13 13 12 12 12 12 12 12 12 11 11 11 11 11 11 11 11 11 11 11 11 11 10 10 10 10 10 10 10
14 13 13 13 13 13 13 13 13 13 13 13 13 13 13 13 12 12 12 12 12 12 11 11 11 11 11 11 11 11 11 11 11 11 11 10 10 10 10 10 10 10 10
14 13 13 13 13 13 13 13 13 13 13 12 12 12 12 12 12 12 12 12 12 12 11 11 11 11 11 11 11 10 10 10 10 10 10 10 10 10 10 10 10 10 10
13 13 13 13 13 13 13 13 13 12 12 12 12 12 12 12 12 12 12 12 11 11 11 11 11 11 11 11 11 10 10 10 10 10 10 10 10 10 10 10 10 10 10
13 13 13 13 13 13 13 13 12 12 12 12 12 12 12 12 12 12 12 11 11 11 11 11 11 11 11 11 10 10 10 10 10 10 10 10 10 10 10 10 10 10 10
13 13 13 13 13 13 12 12 12 12 12 12 12 12 12 12 12 12 11 11 11 11 11 11 11 10 10 10 10 10 10 10 10 10 10 10 10 10 9 9 9 9 9
13 13 13 13 13 13 12 12 12 12 12 12 12 12 12 12 12 12 11 11 11 11 11 11 11 10 10 10 10 10 10 10 10 10 10 9 9 9 9 9 9 9 9
13 13 13 13 12 12 12 12 12 12 12 12 12 12 12 12 11 11 11 11 11 11 10 10 10 10 10 10 10 10 10 10 10 10 9 9 9 9 9 9 9 9 9
13 13 12 12 12 12 12 12 12 12 12 12 12 12 12 11 11 11 11 11 11 10 10 10 10 10 10 10 10 10 10 10 9 9 9 9 9 9 9 9 9 8 8
13 12 12 12 12 12 12 12 12 12 12 12 12 12 12 11 11 11 11 11 11 10 10 10 10 10 10 10 10 10 10 9 9 9 9 9 9 8 8 8 8 8 8
12 12 12 12 12 12 12 12 12 12 12 12 12 12 12 11 11 11 11 11 11 10 10 10 10 10 10 10 9 9 9 9 9 9 9 9 8 8 8 8 8 8 8
12 12 12 12 12 12 12 12 12 12 12 12 12 12 11 11 11 11 11 11 10 10 10 10 10 10 9 9 9 9 9 9 9 9 8 8 8 8 8 8 8 7 7
12 12 12 12 12 12 12 12 12 12 12 12 12 11 11 11 11 11 10 10 10 10 10 10 10 9 9 9 9 9 9 8 8 8 8 8 8 7 7 7 7 7 7
12 12 12 12 12 12 12 12 12 12 12 11 11 11 11 11 11 11 10 10 10 10 10 10 9 9 9 9 9 8 8 8 8 8 8 8 7 7 7 7 7 7 7
12 12 12 12 12 12 12 12 12 12 11 11 11 11 11 11 11 10 10 10 10 10 10 9 9 9 9 9 8 8 8 8 8 8 7 7 7 7 7 7 7 7 7
12 12 12 12 12 12 12 12 12 11 11 11 11 11 11 10 10 10 10 10 10 10 9 9 9 9 9 8 8 8 8 8 7 7 7 7 7 7 7 7 6 6 6
11 11 11 11 11 11 11 11 11 11 11 11 11 11 10 10 10 10 10 10 10 9 9 9 9 8 8 8 8 8 8 7 7 7 7 7 7 6 6 6 6 6 6
11 11 11 11 11 11 11 11 11 11 11 11 11 10 10 10 10 10 10 9 9 9 9 9 8 8 8 8 8 7 7 7 7 6 6 6 6 6 6 6 6 6 6
Wind_Speed
4 3 3 2 2 2 2 3 3 3 4 3 2 2 1 0 0 1 1 1 1 0 0 1 1 1 1 1 0 1 1 2 2 2 1 1 1 2 1 3 4 5 6
4 3 3 3 3 2 2 2 2 3 3 3 2 2 1 1 0 1 1 1 1 1 1 1 1 1 1 1 1 1 1 2 3 2 2 1 1 2 2 2 2 3 5
4 4 3 2 2 2 2 2 2 2 3 3 3 2 1 1 1 1 1 1 1 2 2 2 2 1 1 0 1 1 1 1 1 2 2 1 1 1 0 1 1 1 4
4 4 3 3 2 2 1 1 2 2 3 3 3 2 2 2 1 2 2 1 1 1 1 1 2 2 2 2 1 1 1 0 0 1 1 1 1 1 0 1 1 2 2
4 4 3 3 2 2 2 2 2 3 3 3 3 2 2 2 2 2 2 2 1 1 2 1 1 2 2 2 2 2 1 1 1 1 1 1 1 1 2 2 2 2 2
5 4 4 3 2 2 2 2 1 2 2 3 3 3 3 2 2 3 2 1 1 1 2 2 2 1 1 1 2 2 4 3 3 2 2 3 4 3 2 2 1 1 2
4 4 3 4 3 3 2 1 1 2 2 2 2 3 3 4 4 3 3 2 2 2 2 1 2 2 1 1 2 2 2 3 5 5 4 5 4 4 3 2 3 3 4
3 3 3 4 3 3 2 2 2 2 2 3 3 4 3 4 4 4 2 1 2 2 2 3 2 3 2 1 1 2 3 4 4 4 5 6 6 5 5 5 5 3 2
4 4 4 4 4 3 3 3 3 2 3 3 3 4 4 4 5 5 3 1 2 2 3 3 3 3 4 3 2 3 4 5 6 6 7 7 8 8 5 2 2 1 2
5 5 4 4 4 4 5 4 3 3 4 3 3 4 5 5 6 6 4 2 2 2 3 3 4 4 4 3 3 3 5 6 5 4 4 5 5 6 6 5 5 4 3
4 4 4 4 4 4 4 3 2 2 2 3 3 3 3 4 5 6 5 3 3 3 3 3 4 5 5 5 4 4 7 6 4 4 4 4 3 3 4 5 5 5 5
4 3 3 4 4 3 3 2 2 2 2 2 2 2 2 3 3 4 5 5 4 3 3 4 4 6 6 6 5 6 6 4 2 2 3 4 4 4 4 4 6 6 7
3 3 3 3 2 3 3 3 2 2 2 2 2 3 3 2 3 4 4 5 5 3 4 5 6 6 5 4 6 6 4 2 2 3 4 5 4 5 4 3 3 4 5
4 3 2 2 2 1 1 2 2 2 2 2 2 3 3 2 2 2 1 2 3 3 3 4 5 5 4 5 5 4 3 3 3 4 4 4 3 3 3 2 2 2 2
3 3 2 2 2 1 1 2 3 3 4 4 4 3 3 3 5 6 4 3 3 3 2 1 1 2 3 3 3 4 3 2 3 3 3 4 3 3 3 2 2 2 2
3 2 2 2 2 2 2 1 2 2 4 6 7 5 4 6 6 6 6 5 5 3 2 1 3 3 4 4 4 4 3 3 3 3 3 3 3 3 3 2 2 2 3
3 3 3 2 2 3 3 2 1 3 3 4 5 6 6 6 6 6 5 4 3 3 2 2 3 4 4 4 4 4 4 3 3 2 2 3 3 3 3 3 3 3 3
3 4 3 3 3 3 3 4 3 3 3 3 4 6 6 6 5 5 4 2 0 1 2 3 4 4 4 4 3 3 3 2 2 2 2 2 3 3 3 3 3 3 4
4 3 3 3 3 3 3 3 3 4 3 3 2 3 3 3 2 2 4 2 3 3 3 4 4 4 4 4 4 3 3 3 3 2 2 3 3 3 3 3 3 4 3
4 5 4 3 3 3 3 3 3 3 3 3 3 3 1 2 1 1 2 3 3 4 4 4 4 4 4 3 3 2 2 3 3 2 3 3 3 3 3 3 3 3 3
3 3 4 2 3 4 3 3 3 3 3 3 3 3 4 3 4 3 3 4 4 4 4 4 4 3 3 2 2 2 3 3 3 3 3 3 3 3 3 3 3 3 3
2 3 3 3 3 3 3 3 3 3 3 3 2 2 4 2 3 3 4 4 4 4 4 3 3 3 3 2 2 2 2 3 3 3 3 3 3 3 3 3 3 3 2
1 2 2 2 2 3 3 2 2 3 3 3 3 2 2 3 3 3 4 4 3 3 3 3 2 2 2 2 2 2 3 3 4 4 3 3 3 3 3 3 3 3 3
1 2 2 2 2 2 2 2 3 3 3 3 2 2 2 3 3 3 4 3 3 2 2 2 2 2 2 2 1 1 2 3 3 3 4 3 3 3 3 3 3 4 3
1 1 1 2 2 1 2 2 3 3 3 2 2 2 2 2 2 3 3 2 2 2 1 1 1 1 2 2 1 1 2 2 3 3 3 3 3 3 3 4 3 3 3
1 1 1 1 1 1 2 2 2 2 3 3 2 2 2 1 2 2 1 1 1 1 0 0 0 0 1 1 1 2 3 3 3 4 3 2 3 3 3 3 4 3 4
Wind_Direction
176 177 159 160 171 164 170 188 182 170 159 159 166 163 159 188 160 143 172 135 121 328 320 173 253 253 285 294 224 155 167 163 199 270 274 272 226 239 238 229 224 213 222
157 152 156 152 149 150 172 185 174 173 170 165 159 149 139 129 145 159 198 167 185 227 259 259 274 256 272 258 176 157 181 179 179 228 286 285 252 238 219 222 226 229 226
143 136 132 136 147 168 179 177 168 170 170 165 158 164 173 178 193 220 207 199 206 225 223 211 234 181 234 249 172 186 206 174 167 191 253 260 270 270 114 276 257 252 246
149 149 147 154 165 179 167 166 186 184 172 162 168 182 190 193 204 222 218 208 227 256 260 222 200 187 204 211 198 222 207 207 205 205 256 271 268 288 126 214 289 273 262
155 158 172 178 171 155 142 158 175 180 180 173 177 188 190 196 217 207 221 209 211 253 279 254 219 195 188 187 187 203 187 200 221 237 253 283 282 276 242 226 237 277 284
169 174 177 170 160 160 171 166 164 186 183 171 188 191 198 221 218 194 188 199 221 226 256 280 286 275 250 235 234 207 185 188 198 205 232 240 254 245 238 224 212 234 280
165 176 176 170 167 183 193 169 188 201 188 184 199 192 206 229 219 211 202 185 209 223 221 245 279 295 299 287 294 307 280 244 207 196 214 234 239 234 219 232 226 212 236
171 177 180 177 182 194 189 196 213 204 195 208 214 207 210 233 222 217 210 175 212 236 223 213 234 270 271 239 261 290 286 276 249 223 222 238 240 235 219 221 221 228 268
180 195 200 193 192 201 211 220 221 207 215 222 217 204 207 235 233 223 195 184 233 258 254 239 232 247 258 239 219 260 282 286 275 258 246 248 255 252 229 197 202 191 268
194 202 200 192 193 204 217 224 223 213 217 219 227 223 215 228 235 223 192 177 221 259 276 278 260 248 258 245 221 235 264 276 287 296 287 281 265 261 239 210 202 204 226
195 194 195 192 195 203 210 215 222 214 211 218 229 244 235 234 238 230 204 184 205 233 258 271 272 270 266 258 238 226 243 258 272 274 283 286 282 270 254 233 214 205 216
183 185 197 204 210 206 200 218 213 194 208 227 229 259 263 254 242 238 220 213 205 208 244 256 263 273 274 270 259 259 264 271 265 274 281 279 275 272 266 249 234 228 226
167 182 199 211 221 197 189 200 200 191 202 223 230 249 267 267 260 247 229 226 223 219 249 258 266 272 281 278 272 273 269 255 246 258 264 264 261 262 270 275 267 250 254
171 189 198 203 225 219 183 183 184 195 208 220 229 241 257 260 254 250 249 245 248 256 271 277 281 283 277 270 280 282 256 235 228 243 256 263 269 270 267 265 273 282 285
173 189 201 197 190 188 204 218 213 220 209 202 218 219 218 240 243 218 210 228 237 247 268 304 318 310 297 290 283 278 271 258 248 252 256 268 270 269 271 267 256 263 256
175 192 203 206 204 194 193 310 328 250 233 215 214 210 225 226 223 219 225 234 241 231 185 250 266 262 260 265 268 270 262 255 252 250 256 259 260 263 275 277 259 253 258
183 201 210 208 205 205 199 193 246 313 301 257 237 228 224 222 224 225 227 232 239 184 191 246 256 260 261 264 263 257 258 262 255 243 246 257 257 259 260 263 264 262 262
200 205 208 214 214 211 208 207 206 214 250 277 274 251 235 228 229 225 204 154 242 198 220 240 252 256 255 256 253 251 257 267 267 263 262 263 260 262 261 258 254 253 260
212 218 220 222 219 215 212 209 215 221 229 246 274 281 239 221 217 211 168 180 216 235 237 243 248 252 254 250 249 246 243 247 258 262 263 262 266 269 267 267 263 260 256
226 235 231 223 217 216 214 211 218 222 232 242 245 244 197 143 201 231 216 226 229 239 244 249 255 255 251 247 245 241 249 258 263 260 262 268 271 264 256 262 264 265 259
233 239 240 233 223 221 214 206 208 211 225 237 242 231 182 190 213 223 224 228 233 238 242 247 252 254 247 242 240 242 247 254 252 254 263 267 266 271 266 254 252 252 254
231 231 223 226 228 211 200 206 208 210 215 223 240 231 199 210 220 225 233 237 236 238 236 235 244 242 229 223 223 234 256 261 258 257 260 262 261 262 263 258 256 254 250
223 222 237 234 216 208 214 211 205 211 219 221 215 198 199 227 243 239 240 245 244 244 243 235 236 245 251 237 224 218 233 248 250 245 250 261 264 260 257 254 253 254 249
217 239 232 218 213 206 206 213 213 213 216 222 219 205 213 224 234 242 243 245 241 243 238 215 215 227 227 225 234 246 257 264 261 250 239 246 256 261 256 254 253 244 246
227 241 224 213 205 211 219 222 216 210 211 211 211 218 227 231 238 249 252 249 242 240 242 222 183 198 222 223 251 296 300 294 292 279 260 243 251 257 256 256 254 249 247
276 261 240 227 217 220 223 224 220 215 218 220 215 213 211 222 246 255 270 267 255 254 260 267 182 200 273 281 290 319 323 314 310 301 275 254 255 261 262 263 254 241 244
Height
1493 1495 1496 1497 1498 1498 1499 1499 1500 1500 1500 1501 1501 1501 1500 1500 1500 1500 1499 1499 1498 1498 1497 1497 1497 1496 1496 1496 1495 1495 1495 1495 1494 1494 1494 1494 1494 1494 1495 1495 1496 1496 1496
1492 1493 1495 1496 1496 1497 1497 1498 1499 1499 1499 1499 1500 1500 1500 1500 1499 1499 1498 1498 1498 1497 1497 1496 1496 1495 1494 1494 1494 1494 1493 1493 1493 1492 1492 1492 1492 1492 1493 1493 1493 1493 1493
1491 1492 1493 1494 1495 1495 1496 1497 1498 1498 1498 1498 1498 1498 1498 1498 1498 1498 1497 1497 1496 1496 1495 1494 1494 1494 1493 1492 1492 1492 1491 1491 1491 1490 1489 1490 1490 1490 1490 1490 1490 1490 1491
1490 1491 1492 1492 1493 1493 1494 1495 1496 1496 1496 1495 1496 1496 1497 1497 1496 1496 1495 1495 1495 1494 1494 1493 1493 1492 1492 1491 1490 1490 1489 1489 1489 1488 1488 1487 1488 1488 1488 1488 1488 1488 1488
1489 1490 1491 1491 1492 1492 1493 1494 1494 1494 1494 1494 1494 1494 1495 1495 1494 1494 1494 1493 1493 1493 1492 1492 1491 1491 1490 1489 1489 1488 1488 1487 1487 1486 1486 1485 1486 1486 1486 1486 1485 1485 1485
1488 1489 1489 1490 1491 1491 1492 1492 1492 1492 1493 1493 1492 1492 1492 1492 1492 1492 1492 1492 1491 1491 1491 1490 1490 1489 1488 1488 1487 1486 1486 1485 1484 1484 1484 1483 1483 1483 1483 1483 1483 1483 1482
1486 1487 1488 1488 1489 1489 1490 1490 1490 1490 1490 1490 1490 1490 1490 1490 1490 1490 1490 1490 1489 1489 1488 1488 1487 1487 1486 1486 1485 1484 1484 1483 1483 1482 1481 1481 1481 1481 1481 1481 1480 1480 1479
1485 1486 1486 1487 1487 1487 1487 1488 1488 1488 1488 1488 1488 1488 1488 1488 1488 1488 1488 1488 1487 1486 1486 1485 1485 1485 1484 1484 1483 1482 1481 1481 1480 1480 1479 1479 1478 1478 1478 1478 1477 1476 1476
1483 1484 1484 1485 1485 1485 1486 1486 1486 1486 1486 1486 1486 1486 1486 1486 1486 1485 1485 1485 1484 1484 1483 1483 1482 1482 1482 1481 1481 1480 1479 1478 1478 1477 1476 1476 1475 1475 1475 1474 1474 1473 1472
1481 1482 1483 1483 1483 1483 1484 1484 1484 1484 1484 1484 1484 1484 1484 1483 1483 1483 1483 1482 1482 1481 1481 1480 1480 1479 1479 1479 1478 1477 1476 1475 1475 1474 1473 1472 1472 1471 1471 1471 1470 1469 1468
1479 1480 1481 1481 1481 1482 1482 1482 1482 1482 1482 1481 1481 1481 1481 1481 1481 1480 1480 1480 1479 1479 1478 1477 1477 1477 1477 1476 1475 1474 1473 1473 1471 1470 1469 1468 1468 1467 1467 1466 1466 1465 1464
1478 1478 1479 1479 1480 1480 1480 1480 1480 1479 1479 1479 1479 1478 1478 1478 1478 1477 1477 1477 1477 1476 1476 1475 1475 1474 1474 1473 1472 1471 1471 1470 1468 1467 1466 1465 1464 1463 1463 1463 1462 1461 1461
1476 1477 1477 1478 1478 1478 1477 1477 1477 1477 1476 1476 1476 1475 1475 1475 1475 1475 1474 1474 1474 1474 1473 1473 1472 1472 1471 1470 1469 1468 1467 1466 1465 1463 1462 1461 1461 1460 1459 1459 1458 1457 1456
1474 1475 1475 1475 1475 1475 1475 1475 1475 1474 1474 1474 1473 1473 1473 1472 1472 1471 1471 1471 1471 1471 1470 1470 1469 1469 1468 1467 1466 1465 1464 1463 1461 1460 1459 1458 1458 1457 1456 1455 1454 1453 1452
1472 1472 1473 1473 1473 1473 1473 1473 1472 1472 1472 1472 1471 1471 1470 1470 1469 1469 1469 1468 1468 1468 1467 1467 1466 1466 1465 1464 1463 1462 1461 1459 1458 1457 1456 1455 1454 1453 1452 1451 1450 1449 1448
1469 1469 1470 1470 1471 1471 1471 1470 1470 1470 1470 1470 1469 1469 1468 1468 1467 1467 1466 1466 1465 1465 1464 1463 1463 1462 1461 1460 1459 1458 1457 1456 1455 1454 1453 1451 1450 1449 1448 1447 1446 1445 1444
1466 1467 1468 1468 1468 1468 1468 1468 1468 1468 1467 1467 1467 1466 1466 1465 1465 1464 1464 1463 1462 1462 1461 1460 1460 1459 1458 1457 1456 1455 1454 1453 1452 1450 1449 1448 1447 1445 1444 1443 1442 1441 1440
1465 1465 1465 1466 1466 1466 1466 1466 1466 1465 1465 1464 1464 1464 1463 1462 1462 1461 1461 1460 1459 1458 1457 1457 1456 1455 1455 1454 1453 1452 1450 1449 1448 1447 1445 1443 1443 1441 1440 1439 1438 1437 1436
1462 1462 1463 1463 1463 1463 1464 1463 1463 1463 1463 1462 1461 1460 1460 1459 1459 1458 1458 1457 1456 1455 1454 1453 1453 1452 1451 1450 1449 1448 1447 1446 1444 1443 1441 1440 1439 1438 1436 1435 1434 1433 1432
1460 1460 1460 1461 1460 1461 1461 1461 1461 1460 1460 1459 1458 1458 1457 1456 1456 1455 1454 1454 1453 1452 1451 1450 1449 1448 1447 1446 1445 1444 1443 1441 1440 1439 1437 1436 1435 1434 1433 1432 1431 1430 1429
1457 1457 1457 1458 1458 1458 1458 1458 1458 1458 1457 1456 1456 1455 1455 1454 1453 1452 1452 1451 1450 1449 1448 1447 1446 1445 1444 1443 1442 1440 1439 1437 1436 1435 1433 1432 1431 1430 1429 1428 1427 1426 1425
1454 1454 1454 1454 1454 1454 1455 1455 1455 1455 1454 1454 1453 1453 1452 1451 1450 1449 1449 1448 1447 1446 1445 1444 1442 1442 1440 1439 1438 1436 1435 1434 1432 1431 1430 1428 1427 1426 1425 1425 1424 1423 1422
1451 1451 1451 1451 1451 1452 1452 1452 1452 1452 1451 1451 1451 1450 1449 1448 1447 1446 1445 1445 1444 1442 1441 1440 1439 1438 1437 1436 1434 1433 1431 1430 1428 1427 1426 1424 1423 1422 1422 1421 1420 1419 1419
1449 1449 1449 1449 1449 1449 1449 1449 1449 1449 1449 1448 1448 1447 1446 1445 1444 1443 1442 1441 1440 1439 1438 1437 1436 1434 1433 1432 1431 1429 1427 1426 1424 1423 1422 1420 1419 1418 1418 1417 1417 1416 1415
1447 1446 1446 1446 1446 1446 1446 1446 1446 1446 1446 1445 1445 1444 1443 1442 1441 1440 1439 1438 1437 1436 1435 1433 1432 1431 1430 1428 1427 1425 1423 1422 1420 1419 1418 1416 1415 1414 1414 1413 1413 1412 1412
1445 1445 1444 1444 1444 1444 1444 1443 1443 1443 1442 1442 1442 1441 1440 1439 1438 1437 1436 1434 1433 1432 1431 1430 1429 1427 1426 1424 1422 1421 1419 1418 1417 1415 1414 1412 1411 1411 1410 1409 1409 1409 1408